owner,sensor,date,latitude,longitude,vertical_datum,sea_water_practical_salinity,qcFlag 
ENP,ioos.station.NOAA.NDBC:DKKF1:1,2018-09-01T00:00:00Z,25.1800,-80.4900,1.5,32.96,1111122 
ENP,ioos.station.NOAA.NDBC:DKKF1:1,2018-09-01T01:00:00Z,25.1800,-80.4900,1.5,32.96,1111122 
ENP,ioos.station.NOAA.NDBC:DKKF1:1,2018-09-01T02:00:00Z,25.1800,-80.4900,1.5,33.88,1111122 
ENP,ioos.station.NOAA.NDBC:DKKF1:1,2018-09-01T05:00:00Z,25.1800,-80.4900,1.5,33.2,1111122 
ENP,ioos.station.NOAA.NDBC:DKKF1:1,2018-09-01T06:00:00Z,25.1800,-80.4900,1.5,33.66,1111122 
ENP,ioos.station.NOAA.NDBC:DKKF1:1,2018-09-01T07:00:00Z,25.1800,-80.4900,1.5,34.03,1111122 
ENP,ioos.station.NOAA.NDBC:DKKF1:1,2018-09-01T08:00:00Z,25.1800,-80.4900,1.5,34.26,1111122 
ENP,ioos.station.NOAA.NDBC:DKKF1:1,2018-09-01T09:00:00Z,25.1800,-80.4900,1.5,34.38,1111122 
ENP,ioos.station.NOAA.NDBC:DKKF1:1,2018-09-01T10:00:00Z,25.1800,-80.4900,1.5,34.18,1111122 
ENP,ioos.station.NOAA.NDBC:DKKF1:1,2018-09-01T11:00:00Z,25.1800,-80.4900,1.5,34.58,1111122 
ENP,ioos.station.NOAA.NDBC:DKKF1:1,2018-09-01T12:00:00Z,25.1800,-80.4900,1.5,34.82,1111122 
ENP,ioos.station.NOAA.NDBC:DKKF1:1,2018-09-01T13:00:00Z,25.1800,-80.4900,1.5,34.75,1111122 
ENP,ioos.station.NOAA.NDBC:DKKF1:1,2018-09-01T14:00:00Z,25.1800,-80.4900,1.5,34.61,1111122 
ENP,ioos.station.NOAA.NDBC:DKKF1:1,2018-09-01T15:00:00Z,25.1800,-80.4900,1.5,34.51,1111122 
ENP,ioos.station.NOAA.NDBC:DKKF1:1,2018-09-01T16:00:00Z,25.1800,-80.4900,1.5,34.19,1111122 
ENP,ioos.station.NOAA.NDBC:DKKF1:1,2018-09-01T17:00:00Z,25.1800,-80.4900,1.5,34.22,1111122 
ENP,ioos.station.NOAA.NDBC:DKKF1:1,2018-09-01T18:00:00Z,25.1800,-80.4900,1.5,34.22,1111122 
ENP,ioos.station.NOAA.NDBC:DKKF1:1,2018-09-01T19:00:00Z,25.1800,-80.4900,1.5,34.1,1111122 
ENP,ioos.station.NOAA.NDBC:DKKF1:1,2018-09-01T20:00:00Z,25.1800,-80.4900,1.5,34.05,1111122 
ENP,ioos.station.NOAA.NDBC:DKKF1:1,2018-09-01T21:00:00Z,25.1800,-80.4900,1.5,34.13,1111122 
ENP,ioos.station.NOAA.NDBC:DKKF1:1,2018-09-01T22:00:00Z,25.1800,-80.4900,1.5,34.26,1111122 
ENP,ioos.station.NOAA.NDBC:DKKF1:1,2018-09-01T23:00:00Z,25.1800,-80.4900,1.5,34.38,1111122 
ENP,ioos.station.NOAA.NDBC:DKKF1:1,2018-09-02T00:00:00Z,25.1800,-80.4900,1.5,34.3,1111122 
ENP,ioos.station.NOAA.NDBC:DKKF1:1,2018-09-02T01:00:00Z,25.1800,-80.4900,1.5,34.32,1111122 
ENP,ioos.station.NOAA.NDBC:DKKF1:1,2018-09-02T02:00:00Z,25.1800,-80.4900,1.5,34.17,1111122 
ENP,ioos.station.NOAA.NDBC:DKKF1:1,2018-09-02T04:00:00Z,25.1800,-80.4900,1.5,34.22,1111122 
ENP,ioos.station.NOAA.NDBC:DKKF1:1,2018-09-02T05:00:00Z,25.1800,-80.4900,1.5,34.07,1111122 
ENP,ioos.station.NOAA.NDBC:DKKF1:1,2018-09-02T06:00:00Z,25.1800,-80.4900,1.5,34.04,1111122 
ENP,ioos.station.NOAA.NDBC:DKKF1:1,2018-09-02T07:00:00Z,25.1800,-80.4900,1.5,33.97,1111122 
ENP,ioos.station.NOAA.NDBC:DKKF1:1,2018-09-02T08:00:00Z,25.1800,-80.4900,1.5,33.97,1111122 
ENP,ioos.station.NOAA.NDBC:DKKF1:1,2018-09-02T09:00:00Z,25.1800,-80.4900,1.5,34.0,1111122 
ENP,ioos.station.NOAA.NDBC:DKKF1:1,2018-09-02T10:00:00Z,25.1800,-80.4900,1.5,34.08,1111122 
ENP,ioos.station.NOAA.NDBC:DKKF1:1,2018-09-02T11:00:00Z,25.1800,-80.4900,1.5,34.25,1111122 
ENP,ioos.station.NOAA.NDBC:DKKF1:1,2018-09-02T12:00:00Z,25.1800,-80.4900,1.5,34.28,1111122 
ENP,ioos.station.NOAA.NDBC:DKKF1:1,2018-09-02T13:00:00Z,25.1800,-80.4900,1.5,34.24,1111122 
ENP,ioos.station.NOAA.NDBC:DKKF1:1,2018-09-02T14:00:00Z,25.1800,-80.4900,1.5,34.13,1111122 
ENP,ioos.station.NOAA.NDBC:DKKF1:1,2018-09-02T15:00:00Z,25.1800,-80.4900,1.5,34.0,1111122 
ENP,ioos.station.NOAA.NDBC:DKKF1:1,2018-09-02T16:00:00Z,25.1800,-80.4900,1.5,34.15,1111122 
ENP,ioos.station.NOAA.NDBC:DKKF1:1,2018-09-02T17:00:00Z,25.1800,-80.4900,1.5,34.24,1111122 
ENP,ioos.station.NOAA.NDBC:DKKF1:1,2018-09-02T18:00:00Z,25.1800,-80.4900,1.5,34.31,1111122 
ENP,ioos.station.NOAA.NDBC:DKKF1:1,2018-09-02T19:00:00Z,25.1800,-80.4900,1.5,34.37,1111122 
ENP,ioos.station.NOAA.NDBC:DKKF1:1,2018-09-02T20:00:00Z,25.1800,-80.4900,1.5,34.47,1111122 
ENP,ioos.station.NOAA.NDBC:DKKF1:1,2018-09-02T21:00:00Z,25.1800,-80.4900,1.5,34.25,1111122 
ENP,ioos.station.NOAA.NDBC:DKKF1:1,2018-09-02T22:00:00Z,25.1800,-80.4900,1.5,34.28,1111122 
ENP,ioos.station.NOAA.NDBC:DKKF1:1,2018-09-02T23:00:00Z,25.1800,-80.4900,1.5,34.46,1111122 
ENP,ioos.station.NOAA.NDBC:DKKF1:1,2018-09-03T00:00:00Z,25.1800,-80.4900,1.5,34.34,1111122 
ENP,ioos.station.NOAA.NDBC:DKKF1:1,2018-09-03T01:00:00Z,25.1800,-80.4900,1.5,34.32,1111122 
ENP,ioos.station.NOAA.NDBC:DKKF1:1,2018-09-03T02:00:00Z,25.1800,-80.4900,1.5,34.41,1111122 
ENP,ioos.station.NOAA.NDBC:DKKF1:1,2018-09-03T05:00:00Z,25.1800,-80.4900,1.5,34.29,1111122 
ENP,ioos.station.NOAA.NDBC:DKKF1:1,2018-09-03T06:00:00Z,25.1800,-80.4900,1.5,34.11,1111122 
ENP,ioos.station.NOAA.NDBC:DKKF1:1,2018-09-03T07:00:00Z,25.1800,-80.4900,1.5,34.08,1111122 
ENP,ioos.station.NOAA.NDBC:DKKF1:1,2018-09-03T08:00:00Z,25.1800,-80.4900,1.5,34.31,1111122 
ENP,ioos.station.NOAA.NDBC:DKKF1:1,2018-09-03T09:00:00Z,25.1800,-80.4900,1.5,34.3,1111122 
ENP,ioos.station.NOAA.NDBC:DKKF1:1,2018-09-03T10:00:00Z,25.1800,-80.4900,1.5,34.22,1111122 
ENP,ioos.station.NOAA.NDBC:DKKF1:1,2018-09-03T11:00:00Z,25.1800,-80.4900,1.5,34.36,1111122 
ENP,ioos.station.NOAA.NDBC:DKKF1:1,2018-09-03T12:00:00Z,25.1800,-80.4900,1.5,34.13,1111122 
ENP,ioos.station.NOAA.NDBC:DKKF1:1,2018-09-03T13:00:00Z,25.1800,-80.4900,1.5,34.26,1111122 
ENP,ioos.station.NOAA.NDBC:DKKF1:1,2018-09-03T14:00:00Z,25.1800,-80.4900,1.5,34.24,1111122 
ENP,ioos.station.NOAA.NDBC:DKKF1:1,2018-09-03T15:00:00Z,25.1800,-80.4900,1.5,34.27,1111122 
ENP,ioos.station.NOAA.NDBC:DKKF1:1,2018-09-03T16:00:00Z,25.1800,-80.4900,1.5,33.61,1111122 
ENP,ioos.station.NOAA.NDBC:DKKF1:1,2018-09-03T17:00:00Z,25.1800,-80.4900,1.5,33.57,1111122 
ENP,ioos.station.NOAA.NDBC:DKKF1:1,2018-09-03T18:00:00Z,25.1800,-80.4900,1.5,33.53,1111122 
ENP,ioos.station.NOAA.NDBC:DKKF1:1,2018-09-03T19:00:00Z,25.1800,-80.4900,1.5,33.39,1111122 
ENP,ioos.station.NOAA.NDBC:DKKF1:1,2018-09-03T20:00:00Z,25.1800,-80.4900,1.5,33.31,1111122 
ENP,ioos.station.NOAA.NDBC:DKKF1:1,2018-09-03T21:00:00Z,25.1800,-80.4900,1.5,33.4,1111122 
ENP,ioos.station.NOAA.NDBC:DKKF1:1,2018-09-03T22:00:00Z,25.1800,-80.4900,1.5,33.43,1111122 
ENP,ioos.station.NOAA.NDBC:DKKF1:1,2018-09-03T23:00:00Z,25.1800,-80.4900,1.5,33.49,1111122 
ENP,ioos.station.NOAA.NDBC:DKKF1:1,2018-09-04T00:00:00Z,25.1800,-80.4900,1.5,33.39,1111122 
ENP,ioos.station.NOAA.NDBC:DKKF1:1,2018-09-04T01:00:00Z,25.1800,-80.4900,1.5,33.46,1111122 
ENP,ioos.station.NOAA.NDBC:DKKF1:1,2018-09-04T02:00:00Z,25.1800,-80.4900,1.5,33.46,1111122 
ENP,ioos.station.NOAA.NDBC:DKKF1:1,2018-09-04T05:00:00Z,25.1800,-80.4900,1.5,33.52,1111122 
ENP,ioos.station.NOAA.NDBC:DKKF1:1,2018-09-04T06:00:00Z,25.1800,-80.4900,1.5,33.47,1111122 
ENP,ioos.station.NOAA.NDBC:DKKF1:1,2018-09-04T07:00:00Z,25.1800,-80.4900,1.5,33.55,1111122 
ENP,ioos.station.NOAA.NDBC:DKKF1:1,2018-09-04T08:00:00Z,25.1800,-80.4900,1.5,33.61,1111122 
ENP,ioos.station.NOAA.NDBC:DKKF1:1,2018-09-04T09:00:00Z,25.1800,-80.4900,1.5,33.61,1111122 
ENP,ioos.station.NOAA.NDBC:DKKF1:1,2018-09-04T10:00:00Z,25.1800,-80.4900,1.5,33.61,1111122 
ENP,ioos.station.NOAA.NDBC:DKKF1:1,2018-09-04T11:00:00Z,25.1800,-80.4900,1.5,33.59,1111122 
ENP,ioos.station.NOAA.NDBC:DKKF1:1,2018-09-04T12:00:00Z,25.1800,-80.4900,1.5,33.55,1111122 
ENP,ioos.station.NOAA.NDBC:DKKF1:1,2018-09-04T13:00:00Z,25.1800,-80.4900,1.5,33.53,1111122 
ENP,ioos.station.NOAA.NDBC:DKKF1:1,2018-09-04T14:00:00Z,25.1800,-80.4900,1.5,33.54,1111122 
ENP,ioos.station.NOAA.NDBC:DKKF1:1,2018-09-04T15:00:00Z,25.1800,-80.4900,1.5,33.55,1111122 
ENP,ioos.station.NOAA.NDBC:DKKF1:1,2018-09-04T16:00:00Z,25.1800,-80.4900,1.5,33.55,1111122 
ENP,ioos.station.NOAA.NDBC:DKKF1:1,2018-09-04T17:00:00Z,25.1800,-80.4900,1.5,33.55,1111122 
ENP,ioos.station.NOAA.NDBC:DKKF1:1,2018-09-04T18:00:00Z,25.1800,-80.4900,1.5,33.56,1111122 
ENP,ioos.station.NOAA.NDBC:DKKF1:1,2018-09-04T19:00:00Z,25.1800,-80.4900,1.5,33.54,1111122 
ENP,ioos.station.NOAA.NDBC:DKKF1:1,2018-09-04T20:00:00Z,25.1800,-80.4900,1.5,33.56,1111122 
ENP,ioos.station.NOAA.NDBC:DKKF1:1,2018-09-04T21:00:00Z,25.1800,-80.4900,1.5,33.55,1111122 
ENP,ioos.station.NOAA.NDBC:DKKF1:1,2018-09-04T22:00:00Z,25.1800,-80.4900,1.5,33.59,1111122 
ENP,ioos.station.NOAA.NDBC:DKKF1:1,2018-09-04T23:00:00Z,25.1800,-80.4900,1.5,33.6,1111122 
ENP,ioos.station.NOAA.NDBC:DKKF1:1,2018-09-05T00:00:00Z,25.1800,-80.4900,1.5,33.59,1111122 
ENP,ioos.station.NOAA.NDBC:DKKF1:1,2018-09-05T01:00:00Z,25.1800,-80.4900,1.5,33.58,1111122 
ENP,ioos.station.NOAA.NDBC:DKKF1:1,2018-09-05T02:00:00Z,25.1800,-80.4900,1.5,33.58,1111122 
ENP,ioos.station.NOAA.NDBC:DKKF1:1,2018-09-05T04:00:00Z,25.1800,-80.4900,1.5,33.61,1111122 
ENP,ioos.station.NOAA.NDBC:DKKF1:1,2018-09-05T05:00:00Z,25.1800,-80.4900,1.5,33.61,1111122 
ENP,ioos.station.NOAA.NDBC:DKKF1:1,2018-09-05T06:00:00Z,25.1800,-80.4900,1.5,33.61,1111122 
ENP,ioos.station.NOAA.NDBC:DKKF1:1,2018-09-05T07:00:00Z,25.1800,-80.4900,1.5,33.6,1111122 
ENP,ioos.station.NOAA.NDBC:DKKF1:1,2018-09-05T08:00:00Z,25.1800,-80.4900,1.5,33.58,1111122 
ENP,ioos.station.NOAA.NDBC:DKKF1:1,2018-09-05T09:00:00Z,25.1800,-80.4900,1.5,33.58,1111122 
ENP,ioos.station.NOAA.NDBC:DKKF1:1,2018-09-05T10:00:00Z,25.1800,-80.4900,1.5,33.6,1111122 
ENP,ioos.station.NOAA.NDBC:DKKF1:1,2018-09-05T11:00:00Z,25.1800,-80.4900,1.5,33.59,1111122 
ENP,ioos.station.NOAA.NDBC:DKKF1:1,2018-09-05T12:00:00Z,25.1800,-80.4900,1.5,33.6,1111122 
ENP,ioos.station.NOAA.NDBC:DKKF1:1,2018-09-05T13:00:00Z,25.1800,-80.4900,1.5,33.59,1111122 
ENP,ioos.station.NOAA.NDBC:DKKF1:1,2018-09-05T14:00:00Z,25.1800,-80.4900,1.5,33.58,1111122 
ENP,ioos.station.NOAA.NDBC:DKKF1:1,2018-09-05T15:00:00Z,25.1800,-80.4900,1.5,33.61,1111122 
ENP,ioos.station.NOAA.NDBC:DKKF1:1,2018-09-05T16:00:00Z,25.1800,-80.4900,1.5,33.61,1111122 
ENP,ioos.station.NOAA.NDBC:DKKF1:1,2018-09-05T17:00:00Z,25.1800,-80.4900,1.5,33.63,1111122 
ENP,ioos.station.NOAA.NDBC:DKKF1:1,2018-09-05T20:00:00Z,25.1800,-80.4900,1.5,32.49,1111122 
ENP,ioos.station.NOAA.NDBC:DKKF1:1,2018-09-05T21:00:00Z,25.1800,-80.4900,1.5,32.51,1111122 
ENP,ioos.station.NOAA.NDBC:DKKF1:1,2018-09-05T22:00:00Z,25.1800,-80.4900,1.5,32.54,1111122 
ENP,ioos.station.NOAA.NDBC:DKKF1:1,2018-09-05T23:00:00Z,25.1800,-80.4900,1.5,32.55,1111122 
ENP,ioos.station.NOAA.NDBC:DKKF1:1,2018-09-06T00:00:00Z,25.1800,-80.4900,1.5,32.55,1111122 
ENP,ioos.station.NOAA.NDBC:DKKF1:1,2018-09-06T01:00:00Z,25.1800,-80.4900,1.5,32.55,1111122 
ENP,ioos.station.NOAA.NDBC:DKKF1:1,2018-09-06T02:00:00Z,25.1800,-80.4900,1.5,32.52,1111122 
ENP,ioos.station.NOAA.NDBC:DKKF1:1,2018-09-06T05:00:00Z,25.1800,-80.4900,1.5,32.49,1111122 
ENP,ioos.station.NOAA.NDBC:DKKF1:1,2018-09-06T06:00:00Z,25.1800,-80.4900,1.5,32.54,1111122 
ENP,ioos.station.NOAA.NDBC:DKKF1:1,2018-09-06T07:00:00Z,25.1800,-80.4900,1.5,32.55,1111122 
ENP,ioos.station.NOAA.NDBC:DKKF1:1,2018-09-06T08:00:00Z,25.1800,-80.4900,1.5,32.55,1111122 
ENP,ioos.station.NOAA.NDBC:DKKF1:1,2018-09-06T09:00:00Z,25.1800,-80.4900,1.5,32.56,1111122 
ENP,ioos.station.NOAA.NDBC:DKKF1:1,2018-09-06T10:00:00Z,25.1800,-80.4900,1.5,32.57,1111122 
ENP,ioos.station.NOAA.NDBC:DKKF1:1,2018-09-06T11:00:00Z,25.1800,-80.4900,1.5,32.57,1111122 
ENP,ioos.station.NOAA.NDBC:DKKF1:1,2018-09-06T12:00:00Z,25.1800,-80.4900,1.5,32.59,1111122 
ENP,ioos.station.NOAA.NDBC:DKKF1:1,2018-09-06T13:00:00Z,25.1800,-80.4900,1.5,32.6,1111122 
ENP,ioos.station.NOAA.NDBC:DKKF1:1,2018-09-06T14:00:00Z,25.1800,-80.4900,1.5,32.6,1111122 
ENP,ioos.station.NOAA.NDBC:DKKF1:1,2018-09-06T15:00:00Z,25.1800,-80.4900,1.5,32.57,1111122 
ENP,ioos.station.NOAA.NDBC:DKKF1:1,2018-09-06T16:00:00Z,25.1800,-80.4900,1.5,32.52,1111122 
ENP,ioos.station.NOAA.NDBC:DKKF1:1,2018-09-06T17:00:00Z,25.1800,-80.4900,1.5,32.52,1111122 
ENP,ioos.station.NOAA.NDBC:DKKF1:1,2018-09-06T18:00:00Z,25.1800,-80.4900,1.5,32.54,1111122 
ENP,ioos.station.NOAA.NDBC:DKKF1:1,2018-09-06T19:00:00Z,25.1800,-80.4900,1.5,32.57,1111122 
ENP,ioos.station.NOAA.NDBC:DKKF1:1,2018-09-06T20:00:00Z,25.1800,-80.4900,1.5,32.59,1111122 
ENP,ioos.station.NOAA.NDBC:DKKF1:1,2018-09-06T21:00:00Z,25.1800,-80.4900,1.5,32.57,1111122 
ENP,ioos.station.NOAA.NDBC:DKKF1:1,2018-09-06T22:00:00Z,25.1800,-80.4900,1.5,32.52,1111122 
ENP,ioos.station.NOAA.NDBC:DKKF1:1,2018-09-06T23:00:00Z,25.1800,-80.4900,1.5,32.49,1111122 
ENP,ioos.station.NOAA.NDBC:DKKF1:1,2018-09-07T00:00:00Z,25.1800,-80.4900,1.5,32.45,1111122 
ENP,ioos.station.NOAA.NDBC:DKKF1:1,2018-09-07T01:00:00Z,25.1800,-80.4900,1.5,32.41,1111122 
ENP,ioos.station.NOAA.NDBC:DKKF1:1,2018-09-07T02:00:00Z,25.1800,-80.4900,1.5,32.42,1111122 
ENP,ioos.station.NOAA.NDBC:DKKF1:1,2018-09-07T04:00:00Z,25.1800,-80.4900,1.5,32.39,1111122 
ENP,ioos.station.NOAA.NDBC:DKKF1:1,2018-09-07T05:00:00Z,25.1800,-80.4900,1.5,32.37,1111122 
ENP,ioos.station.NOAA.NDBC:DKKF1:1,2018-09-07T06:00:00Z,25.1800,-80.4900,1.5,32.39,1111122 
ENP,ioos.station.NOAA.NDBC:DKKF1:1,2018-09-07T07:00:00Z,25.1800,-80.4900,1.5,32.4,1111122 
ENP,ioos.station.NOAA.NDBC:DKKF1:1,2018-09-07T08:00:00Z,25.1800,-80.4900,1.5,32.4,1111122 
ENP,ioos.station.NOAA.NDBC:DKKF1:1,2018-09-07T09:00:00Z,25.1800,-80.4900,1.5,32.39,1111122 
ENP,ioos.station.NOAA.NDBC:DKKF1:1,2018-09-07T10:00:00Z,25.1800,-80.4900,1.5,32.36,1111122 
ENP,ioos.station.NOAA.NDBC:DKKF1:1,2018-09-07T11:00:00Z,25.1800,-80.4900,1.5,32.26,1111122 
ENP,ioos.station.NOAA.NDBC:DKKF1:1,2018-09-07T12:00:00Z,25.1800,-80.4900,1.5,32.27,1111122 
ENP,ioos.station.NOAA.NDBC:DKKF1:1,2018-09-07T13:00:00Z,25.1800,-80.4900,1.5,32.27,1111122 
ENP,ioos.station.NOAA.NDBC:DKKF1:1,2018-09-07T14:00:00Z,25.1800,-80.4900,1.5,32.28,1111122 
ENP,ioos.station.NOAA.NDBC:DKKF1:1,2018-09-07T15:00:00Z,25.1800,-80.4900,1.5,32.28,1111122 
ENP,ioos.station.NOAA.NDBC:DKKF1:1,2018-09-07T16:00:00Z,25.1800,-80.4900,1.5,32.28,1111122 
ENP,ioos.station.NOAA.NDBC:DKKF1:1,2018-09-07T17:00:00Z,25.1800,-80.4900,1.5,32.33,1111122 
ENP,ioos.station.NOAA.NDBC:DKKF1:1,2018-09-07T18:00:00Z,25.1800,-80.4900,1.5,32.34,1111122 
ENP,ioos.station.NOAA.NDBC:DKKF1:1,2018-09-07T19:00:00Z,25.1800,-80.4900,1.5,32.39,1111122 
ENP,ioos.station.NOAA.NDBC:DKKF1:1,2018-09-07T20:00:00Z,25.1800,-80.4900,1.5,32.41,1111122 
ENP,ioos.station.NOAA.NDBC:DKKF1:1,2018-09-07T21:00:00Z,25.1800,-80.4900,1.5,32.46,1111122 
ENP,ioos.station.NOAA.NDBC:DKKF1:1,2018-09-07T22:00:00Z,25.1800,-80.4900,1.5,32.47,1111122 
ENP,ioos.station.NOAA.NDBC:DKKF1:1,2018-09-07T23:00:00Z,25.1800,-80.4900,1.5,32.49,1111122 
ENP,ioos.station.NOAA.NDBC:DKKF1:1,2018-09-08T00:00:00Z,25.1800,-80.4900,1.5,32.49,1111122 
ENP,ioos.station.NOAA.NDBC:DKKF1:1,2018-09-08T01:00:00Z,25.1800,-80.4900,1.5,32.49,1111122 
ENP,ioos.station.NOAA.NDBC:DKKF1:1,2018-09-08T02:00:00Z,25.1800,-80.4900,1.5,32.5,1111122 
ENP,ioos.station.NOAA.NDBC:DKKF1:1,2018-09-08T06:00:00Z,25.1800,-80.4900,1.5,32.52,1111122 
ENP,ioos.station.NOAA.NDBC:DKKF1:1,2018-09-08T07:00:00Z,25.1800,-80.4900,1.5,32.52,1111122 
ENP,ioos.station.NOAA.NDBC:DKKF1:1,2018-09-08T08:00:00Z,25.1800,-80.4900,1.5,32.53,1111122 
ENP,ioos.station.NOAA.NDBC:DKKF1:1,2018-09-08T09:00:00Z,25.1800,-80.4900,1.5,32.49,1111122 
ENP,ioos.station.NOAA.NDBC:DKKF1:1,2018-09-08T10:00:00Z,25.1800,-80.4900,1.5,32.46,1111122 
ENP,ioos.station.NOAA.NDBC:DKKF1:1,2018-09-08T11:00:00Z,25.1800,-80.4900,1.5,32.46,1111122 
ENP,ioos.station.NOAA.NDBC:DKKF1:1,2018-09-08T12:00:00Z,25.1800,-80.4900,1.5,32.43,1111122 
ENP,ioos.station.NOAA.NDBC:DKKF1:1,2018-09-08T13:00:00Z,25.1800,-80.4900,1.5,32.41,1111122 
ENP,ioos.station.NOAA.NDBC:DKKF1:1,2018-09-08T14:00:00Z,25.1800,-80.4900,1.5,32.38,1111122 
ENP,ioos.station.NOAA.NDBC:DKKF1:1,2018-09-08T15:00:00Z,25.1800,-80.4900,1.5,32.29,1111122 
ENP,ioos.station.NOAA.NDBC:DKKF1:1,2018-09-08T16:00:00Z,25.1800,-80.4900,1.5,32.23,1111122 
ENP,ioos.station.NOAA.NDBC:DKKF1:1,2018-09-08T17:00:00Z,25.1800,-80.4900,1.5,32.26,1111122 
ENP,ioos.station.NOAA.NDBC:DKKF1:1,2018-09-08T18:00:00Z,25.1800,-80.4900,1.5,32.28,1111122 
ENP,ioos.station.NOAA.NDBC:DKKF1:1,2018-09-08T19:00:00Z,25.1800,-80.4900,1.5,32.33,1111122 
ENP,ioos.station.NOAA.NDBC:DKKF1:1,2018-09-08T20:00:00Z,25.1800,-80.4900,1.5,32.33,1111122 
ENP,ioos.station.NOAA.NDBC:DKKF1:1,2018-09-08T21:00:00Z,25.1800,-80.4900,1.5,32.34,1111122 
ENP,ioos.station.NOAA.NDBC:DKKF1:1,2018-09-08T22:00:00Z,25.1800,-80.4900,1.5,32.36,1111122 
ENP,ioos.station.NOAA.NDBC:DKKF1:1,2018-09-08T23:00:00Z,25.1800,-80.4900,1.5,32.36,1111122 
ENP,ioos.station.NOAA.NDBC:DKKF1:1,2018-09-09T00:00:00Z,25.1800,-80.4900,1.5,32.36,1111122 
ENP,ioos.station.NOAA.NDBC:DKKF1:1,2018-09-09T01:00:00Z,25.1800,-80.4900,1.5,32.34,1111122 
ENP,ioos.station.NOAA.NDBC:DKKF1:1,2018-09-09T02:00:00Z,25.1800,-80.4900,1.5,32.3,1111122 
ENP,ioos.station.NOAA.NDBC:DKKF1:1,2018-09-09T04:00:00Z,25.1800,-80.4900,1.5,32.01,1111122 
ENP,ioos.station.NOAA.NDBC:DKKF1:1,2018-09-09T05:00:00Z,25.1800,-80.4900,1.5,32.0,1111122 
ENP,ioos.station.NOAA.NDBC:DKKF1:1,2018-09-09T06:00:00Z,25.1800,-80.4900,1.5,31.87,1111122 
ENP,ioos.station.NOAA.NDBC:DKKF1:1,2018-09-09T07:00:00Z,25.1800,-80.4900,1.5,31.51,1111122 
ENP,ioos.station.NOAA.NDBC:DKKF1:1,2018-09-09T08:00:00Z,25.1800,-80.4900,1.5,31.61,1111122 
ENP,ioos.station.NOAA.NDBC:DKKF1:1,2018-09-09T09:00:00Z,25.1800,-80.4900,1.5,31.66,1111122 
ENP,ioos.station.NOAA.NDBC:DKKF1:1,2018-09-09T10:00:00Z,25.1800,-80.4900,1.5,31.76,1111122 
ENP,ioos.station.NOAA.NDBC:DKKF1:1,2018-09-09T11:00:00Z,25.1800,-80.4900,1.5,31.8,1111122 
ENP,ioos.station.NOAA.NDBC:DKKF1:1,2018-09-09T12:00:00Z,25.1800,-80.4900,1.5,31.81,1111122 
ENP,ioos.station.NOAA.NDBC:DKKF1:1,2018-09-09T13:00:00Z,25.1800,-80.4900,1.5,31.81,1111122 
ENP,ioos.station.NOAA.NDBC:DKKF1:1,2018-09-09T14:00:00Z,25.1800,-80.4900,1.5,31.82,1111122 
ENP,ioos.station.NOAA.NDBC:DKKF1:1,2018-09-09T15:00:00Z,25.1800,-80.4900,1.5,31.85,1111122 
ENP,ioos.station.NOAA.NDBC:DKKF1:1,2018-09-09T16:00:00Z,25.1800,-80.4900,1.5,31.87,1111122 
ENP,ioos.station.NOAA.NDBC:DKKF1:1,2018-09-09T17:00:00Z,25.1800,-80.4900,1.5,31.94,1111122 
ENP,ioos.station.NOAA.NDBC:DKKF1:1,2018-09-09T18:00:00Z,25.1800,-80.4900,1.5,31.99,1111122 
ENP,ioos.station.NOAA.NDBC:DKKF1:1,2018-09-09T19:00:00Z,25.1800,-80.4900,1.5,32.03,1111122 
ENP,ioos.station.NOAA.NDBC:DKKF1:1,2018-09-09T20:00:00Z,25.1800,-80.4900,1.5,31.89,1111122 
ENP,ioos.station.NOAA.NDBC:DKKF1:1,2018-09-09T21:00:00Z,25.1800,-80.4900,1.5,31.76,1111122 
ENP,ioos.station.NOAA.NDBC:DKKF1:1,2018-09-09T22:00:00Z,25.1800,-80.4900,1.5,31.45,1111122 
ENP,ioos.station.NOAA.NDBC:DKKF1:1,2018-09-09T23:00:00Z,25.1800,-80.4900,1.5,30.58,1111122 
ENP,ioos.station.NOAA.NDBC:DKKF1:1,2018-09-10T00:00:00Z,25.1800,-80.4900,1.5,29.54,1111122 
ENP,ioos.station.NOAA.NDBC:DKKF1:1,2018-09-10T01:00:00Z,25.1800,-80.4900,1.5,30.63,1111122 
ENP,ioos.station.NOAA.NDBC:DKKF1:1,2018-09-10T02:00:00Z,25.1800,-80.4900,1.5,30.45,1111122 
ENP,ioos.station.NOAA.NDBC:DKKF1:1,2018-09-10T04:00:00Z,25.1800,-80.4900,1.5,29.47,1111122 
ENP,ioos.station.NOAA.NDBC:DKKF1:1,2018-09-10T05:00:00Z,25.1800,-80.4900,1.5,28.89,1111122 
ENP,ioos.station.NOAA.NDBC:DKKF1:1,2018-09-10T06:00:00Z,25.1800,-80.4900,1.5,27.47,1111122 
ENP,ioos.station.NOAA.NDBC:DKKF1:1,2018-09-10T07:00:00Z,25.1800,-80.4900,1.5,28.93,1111122 
ENP,ioos.station.NOAA.NDBC:DKKF1:1,2018-09-10T08:00:00Z,25.1800,-80.4900,1.5,29.75,1111122 
ENP,ioos.station.NOAA.NDBC:DKKF1:1,2018-09-10T09:00:00Z,25.1800,-80.4900,1.5,29.85,1111122 
ENP,ioos.station.NOAA.NDBC:DKKF1:1,2018-09-10T10:00:00Z,25.1800,-80.4900,1.5,29.83,1111122 
ENP,ioos.station.NOAA.NDBC:DKKF1:1,2018-09-10T11:00:00Z,25.1800,-80.4900,1.5,30.1,1111122 
ENP,ioos.station.NOAA.NDBC:DKKF1:1,2018-09-10T12:00:00Z,25.1800,-80.4900,1.5,30.34,1111122 
ENP,ioos.station.NOAA.NDBC:DKKF1:1,2018-09-10T13:00:00Z,25.1800,-80.4900,1.5,30.55,1111122 
ENP,ioos.station.NOAA.NDBC:DKKF1:1,2018-09-10T14:00:00Z,25.1800,-80.4900,1.5,30.78,1111122 
ENP,ioos.station.NOAA.NDBC:DKKF1:1,2018-09-10T15:00:00Z,25.1800,-80.4900,1.5,31.1,1111122 
ENP,ioos.station.NOAA.NDBC:DKKF1:1,2018-09-10T16:00:00Z,25.1800,-80.4900,1.5,31.26,1111122 
ENP,ioos.station.NOAA.NDBC:DKKF1:1,2018-09-10T17:00:00Z,25.1800,-80.4900,1.5,31.39,1111122 
ENP,ioos.station.NOAA.NDBC:DKKF1:1,2018-09-10T18:00:00Z,25.1800,-80.4900,1.5,31.53,1111122 
ENP,ioos.station.NOAA.NDBC:DKKF1:1,2018-09-10T19:00:00Z,25.1800,-80.4900,1.5,31.58,1111122 
ENP,ioos.station.NOAA.NDBC:DKKF1:1,2018-09-10T20:00:00Z,25.1800,-80.4900,1.5,31.47,1111122 
ENP,ioos.station.NOAA.NDBC:DKKF1:1,2018-09-10T21:00:00Z,25.1800,-80.4900,1.5,31.16,1111122 
ENP,ioos.station.NOAA.NDBC:DKKF1:1,2018-09-10T22:00:00Z,25.1800,-80.4900,1.5,30.97,1111122 
ENP,ioos.station.NOAA.NDBC:DKKF1:1,2018-09-10T23:00:00Z,25.1800,-80.4900,1.5,31.03,1111122 
ENP,ioos.station.NOAA.NDBC:DKKF1:1,2018-09-11T00:00:00Z,25.1800,-80.4900,1.5,31.06,1111122 
ENP,ioos.station.NOAA.NDBC:DKKF1:1,2018-09-11T01:00:00Z,25.1800,-80.4900,1.5,31.1,1111122 
ENP,ioos.station.NOAA.NDBC:DKKF1:1,2018-09-11T02:00:00Z,25.1800,-80.4900,1.5,31.08,1111122 
ENP,ioos.station.NOAA.NDBC:DKKF1:1,2018-09-11T05:00:00Z,25.1800,-80.4900,1.5,30.92,1111122 
ENP,ioos.station.NOAA.NDBC:DKKF1:1,2018-09-11T06:00:00Z,25.1800,-80.4900,1.5,30.63,1111122 
ENP,ioos.station.NOAA.NDBC:DKKF1:1,2018-09-11T07:00:00Z,25.1800,-80.4900,1.5,30.87,1111122 
ENP,ioos.station.NOAA.NDBC:DKKF1:1,2018-09-11T08:00:00Z,25.1800,-80.4900,1.5,31.05,1111122 
ENP,ioos.station.NOAA.NDBC:DKKF1:1,2018-09-11T09:00:00Z,25.1800,-80.4900,1.5,31.2,1111122 
ENP,ioos.station.NOAA.NDBC:DKKF1:1,2018-09-11T10:00:00Z,25.1800,-80.4900,1.5,31.26,1111122 
ENP,ioos.station.NOAA.NDBC:DKKF1:1,2018-09-11T11:00:00Z,25.1800,-80.4900,1.5,31.26,1111122 
ENP,ioos.station.NOAA.NDBC:DKKF1:1,2018-09-11T12:00:00Z,25.1800,-80.4900,1.5,31.18,1111122 
ENP,ioos.station.NOAA.NDBC:DKKF1:1,2018-09-11T13:00:00Z,25.1800,-80.4900,1.5,31.16,1111122 
ENP,ioos.station.NOAA.NDBC:DKKF1:1,2018-09-11T14:00:00Z,25.1800,-80.4900,1.5,31.17,1111122 
ENP,ioos.station.NOAA.NDBC:DKKF1:1,2018-09-11T15:00:00Z,25.1800,-80.4900,1.5,31.18,1111122 
ENP,ioos.station.NOAA.NDBC:DKKF1:1,2018-09-11T16:00:00Z,25.1800,-80.4900,1.5,31.2,1111122 
ENP,ioos.station.NOAA.NDBC:DKKF1:1,2018-09-11T17:00:00Z,25.1800,-80.4900,1.5,30.38,1111122 
ENP,ioos.station.NOAA.NDBC:DKKF1:1,2018-09-11T18:00:00Z,25.1800,-80.4900,1.5,30.14,1111122 
ENP,ioos.station.NOAA.NDBC:DKKF1:1,2018-09-11T19:00:00Z,25.1800,-80.4900,1.5,30.44,1111122 
ENP,ioos.station.NOAA.NDBC:DKKF1:1,2018-09-11T20:00:00Z,25.1800,-80.4900,1.5,30.79,1111122 
ENP,ioos.station.NOAA.NDBC:DKKF1:1,2018-09-11T21:00:00Z,25.1800,-80.4900,1.5,30.87,1111122 
ENP,ioos.station.NOAA.NDBC:DKKF1:1,2018-09-11T22:00:00Z,25.1800,-80.4900,1.5,30.58,1111122 
ENP,ioos.station.NOAA.NDBC:DKKF1:1,2018-09-11T23:00:00Z,25.1800,-80.4900,1.5,30.39,1111122 
ENP,ioos.station.NOAA.NDBC:DKKF1:1,2018-09-12T00:00:00Z,25.1800,-80.4900,1.5,30.23,1111122 
ENP,ioos.station.NOAA.NDBC:DKKF1:1,2018-09-12T01:00:00Z,25.1800,-80.4900,1.5,30.25,1111122 
ENP,ioos.station.NOAA.NDBC:DKKF1:1,2018-09-12T02:00:00Z,25.1800,-80.4900,1.5,30.26,1111122 
ENP,ioos.station.NOAA.NDBC:DKKF1:1,2018-09-12T04:00:00Z,25.1800,-80.4900,1.5,30.26,1111122 
ENP,ioos.station.NOAA.NDBC:DKKF1:1,2018-09-12T05:00:00Z,25.1800,-80.4900,1.5,30.42,1111122 
ENP,ioos.station.NOAA.NDBC:DKKF1:1,2018-09-12T06:00:00Z,25.1800,-80.4900,1.5,30.66,1111122 
ENP,ioos.station.NOAA.NDBC:DKKF1:1,2018-09-12T07:00:00Z,25.1800,-80.4900,1.5,30.34,1111122 
ENP,ioos.station.NOAA.NDBC:DKKF1:1,2018-09-12T08:00:00Z,25.1800,-80.4900,1.5,30.36,1111122 
ENP,ioos.station.NOAA.NDBC:DKKF1:1,2018-09-12T09:00:00Z,25.1800,-80.4900,1.5,30.52,1111122 
ENP,ioos.station.NOAA.NDBC:DKKF1:1,2018-09-12T10:00:00Z,25.1800,-80.4900,1.5,30.48,1111122 
ENP,ioos.station.NOAA.NDBC:DKKF1:1,2018-09-12T11:00:00Z,25.1800,-80.4900,1.5,30.37,1111122 
ENP,ioos.station.NOAA.NDBC:DKKF1:1,2018-09-12T12:00:00Z,25.1800,-80.4900,1.5,30.2,1111122 
ENP,ioos.station.NOAA.NDBC:DKKF1:1,2018-09-12T13:00:00Z,25.1800,-80.4900,1.5,30.19,1111122 
ENP,ioos.station.NOAA.NDBC:DKKF1:1,2018-09-12T14:00:00Z,25.1800,-80.4900,1.5,30.21,1111122 
ENP,ioos.station.NOAA.NDBC:DKKF1:1,2018-09-12T15:00:00Z,25.1800,-80.4900,1.5,30.21,1111122 
ENP,ioos.station.NOAA.NDBC:DKKF1:1,2018-09-12T16:00:00Z,25.1800,-80.4900,1.5,30.21,1111122 